Weather History for KLAA - September, 2012

Change the Weather History Date:

Wednesday, September 12, 2012

  Actual Average Record
Temperature  
Mean Temperature 64 °F 68 °F  
Max Temperature 74 °F 84 °F 101 °F (1939)
Min Temperature 53 °F 52 °F 34 °F (1944)
Degree Days  
Heating Degree Days 1 1  
Month to date heating degree days 3 11  
Since 1 July heating degree days 3 16  
Cooling Degree Days 0 5  
Month to date cooling degree days 97 72  
Year to date cooling degree days 1613 1061  
Growing Degree Days 16 (Base 50)    
Moisture  
Dew Point 45 °F    
Average Humidity 64    
Maximum Humidity 100    
Minimum Humidity 27    
Precipitation  
Precipitation 0.15 in 0.05 in 1.05 in (1982)
Month to date precipitation 0.15 0.60  
Year to date precipitation 4.53 12.97  
Snow  
Snow 0.00 in - - ()
Month to date snowfall 0.0  
Snow Depth 0.00 in    
Sea Level Pressure  
Sea Level Pressure 30.08 in    
Wind  
Wind Speed 14 mph (NNE)    
Max Wind Speed 36 mph    
Max Gust Speed 41 mph    
Visibility 8 miles    
Events Rain    
T = Trace of Precipitation, MM = Missing Value Source: NWS Daily Summary

Daily Weather History Graph

Daily Weather History Graph

Search for Another Location

Airport or City:

Trip Planner

Search our weather history database for the weather conditions in past years. The results will help you decide how hot, cold, wet, or windy it might be!

Date:

Astronomy

Sep. 12, 2012 Rise Set
Actual Time 6:30 AM MDT 7:02 PM MDT
Civil Twilight 6:03 AM MDT 7:29 PM MDT
Nautical Twilight 5:32 AM MDT 8:00 PM MDT
Astronomical Twilight 5:00 AM MDT 8:32 PM MDT
Moon 2:52 AM MDT (9/12) 4:49 PM MDT (9/12)
Length of Visible Light 13h 25m
Length of Day
12h 32m
Waning Crescent, 13% of the Moon is Illuminated
Sep 12
Waning Crescent
Sep 15
New
Sep 22
First Quarter
Sep 29
Full
Oct 8
Last Quarter

Hourly Weather History & Observations

Time (MDT) Temp. Dew Point Humidity Pressure Visibility Wind Dir Wind Speed Gust Speed Precip Events Conditions
12:04 AM 78.8 °F 39.2 °F 24% 29.83 in 4.0 mi North 27.6 mph 42.6 mph N/A   Haze
12:31 AM 75.2 °F 37.4 °F 25% 29.85 in 6.0 mi North 26.5 mph 43.7 mph N/A   Haze
12:53 AM 73.9 °F 37.9 °F 27% 29.69 in 6.0 mi North 31.1 mph 38.0 mph N/A   Haze
1:45 AM 71.6 °F 37.4 °F 29% 29.89 in 9.0 mi North 21.9 mph 31.1 mph N/A   Scattered Clouds
1:53 AM 72.0 °F 37.0 °F 28% 29.71 in 9.0 mi North 24.2 mph 32.2 mph N/A   Partly Cloudy
2:53 AM 70.0 °F 36.0 °F 29% 29.75 in 10.0 mi North 27.6 mph 33.4 mph N/A   Clear
3:53 AM 66.9 °F 34.0 °F 30% 29.79 in 10.0 mi NNE 16.1 mph 24.2 mph N/A   Clear
4:53 AM 64.9 °F 33.1 °F 31% 29.82 in 10.0 mi NNE 10.4 mph - N/A   Clear
5:53 AM 64.0 °F 33.1 °F 31% 29.85 in 10.0 mi NNE 11.5 mph - N/A   Clear
6:53 AM 64.0 °F 33.1 °F 31% 29.89 in 10.0 mi NNE 13.8 mph - N/A   Clear
7:53 AM 66.9 °F 34.0 °F 30% 29.92 in 10.0 mi NNE 11.5 mph - N/A   Clear
8:53 AM 69.1 °F 37.0 °F 31% 29.93 in 10.0 mi NE 20.7 mph 26.5 mph N/A   Partly Cloudy
9:53 AM 69.1 °F 37.0 °F 31% 29.95 in 10.0 mi NNE 17.3 mph 25.3 mph N/A   Clear
10:53 AM 70.0 °F 37.9 °F 31% 29.98 in 10.0 mi NNE 16.1 mph - N/A   Mostly Cloudy
11:53 AM 71.1 °F 39.0 °F 31% 29.99 in 10.0 mi NNE 19.6 mph 25.3 mph N/A   Mostly Cloudy
12:53 PM 71.1 °F 39.0 °F 31% 30.02 in 10.0 mi NE 18.4 mph 24.2 mph N/A   Partly Cloudy
1:53 PM 68.0 °F 39.9 °F 36% 30.04 in 10.0 mi NNE 19.6 mph 31.1 mph N/A   Overcast
2:53 PM 57.9 °F 52.0 °F 81% 30.10 in 7.0 mi North 19.6 mph 28.8 mph 0.00 in Rain Light Rain
3:53 PM 55.9 °F 52.0 °F 87% 30.14 in 6.0 mi North 18.4 mph - 0.00 in Rain Light Rain
4:53 PM 55.0 °F 53.1 °F 93% 30.17 in 5.0 mi North 10.4 mph - 0.04 in Rain Light Rain
5:15 PM 55.4 °F 53.6 °F 94% 30.25 in 6.0 mi North 11.5 mph - 0.00 in Rain Light Rain
5:23 PM 55.4 °F 53.6 °F 94% 30.25 in 7.0 mi North 9.2 mph - 0.00 in   Overcast
5:34 PM 55.4 °F 53.6 °F 94% 30.26 in 8.0 mi North 10.4 mph - 0.00 in   Overcast
5:46 PM 55.4 °F 51.8 °F 88% 30.26 in 9.0 mi North 8.1 mph - 0.00 in   Overcast
5:53 PM 55.0 °F 53.1 °F 93% 30.18 in 7.0 mi NNE 11.5 mph - 0.00 in Rain Light Rain
6:53 PM 55.0 °F 53.1 °F 93% 30.20 in 9.0 mi North 6.9 mph - 0.00 in   Overcast
7:46 PM 55.4 °F 51.8 °F 88% 30.29 in 7.0 mi North 9.2 mph - 0.02 in Rain Light Rain
7:53 PM 54.0 °F 52.0 °F 93% 30.21 in 7.0 mi North 10.4 mph - 0.03 in Rain Light Rain
8:00 PM 53.6 °F 51.8 °F 94% 30.29 in 8.0 mi North 9.2 mph - 0.00 in Rain Light Rain
8:31 PM 53.6 °F 51.8 °F 94% 30.31 in 6.0 mi North 9.2 mph - 0.02 in Rain Light Rain
8:53 PM 54.0 °F 53.1 °F 97% 30.23 in 6.0 mi NNW 4.6 mph - 0.04 in Rain Light Rain
9:09 PM 53.6 °F 53.6 °F 100% 30.32 in 7.0 mi NNW 6.9 mph - 0.01 in Rain Light Rain
9:41 PM 53.6 °F 53.6 °F 100% 30.34 in 8.0 mi NNW 9.2 mph - 0.03 in Rain Light Rain
9:53 PM 54.0 °F 53.1 °F 97% 30.25 in 8.0 mi North 9.2 mph - 0.03 in Rain Light Rain
10:28 PM 55.4 °F 53.6 °F 94% 30.35 in 9.0 mi North 8.1 mph - 0.01 in Rain Light Rain
10:53 PM 54.0 °F 53.1 °F 97% 30.27 in 9.0 mi NNE 5.8 mph - 0.01 in Rain Light Rain
11:53 PM 54.0 °F 52.0 °F 93% 30.28 in 10.0 mi NE 3.5 mph - 0.00 in   Overcast